Location: Newark
(40.6600°N, 16.2200°E)
Time: 05:02:41
(UTC+00:00)

Hubble Space Telescope - Visible Passes

Search period start: 29 September 2020 00:00
Search period end: 09 October 2020 00:00
Orbit: 536 x 540 km, 28.5° (Epoch: 28 September)

Date Brightness Start Highest point End Pass type
(mag) Time Alt. Az. Time Alt. Az. Time Alt. Az.
29 Sep 3.0 04:00:26 10° SW 04:02:48 15° S 04:05:10 10° SE visible
30 Sep 2.9 03:49:38 10° SW 03:51:57 15° S 03:54:16 10° SSE visible
01 Oct 2.9 03:39:33 12° SSW 03:41:06 14° S 03:43:18 10° SSE visible
02 Oct 2.9 03:29:31 13° SSW 03:30:15 13° S 03:32:14 10° SSE visible
03 Oct 3.0 03:19:31 12° S 03:19:31 12° S 03:21:03 10° SSE visible
04 Oct 3.3 03:09:34 10° S 03:09:34 10° S 03:09:38 10° S visible
